[[{"header":{"parameterUnit":"m.s-1","parameterCategory":2,"la1":30.2991,"la2":30.254,"lo1":-89.0895,"lo2":-89.0444,"dy":0.0017,"dx":0.0017,"nx":28,"ny":28,"refTime":"2023-08-22T21:00:00:Z","depth":"0","parameterNumber":2,"parameterNumberName":"U-component_of_CURRENTS"},"data":[0,0,0,0,0,0,0,0,0,0,0,0,0,0,0,0,0,0,0,0,0,0,0,0,0,0,0,0,0,0,0,0,0,0,0,0,0,0,0,0,0,0,0,0,0,0,0,0,0,0,0,0,0,0,0,0,0,0,0.4109,0.4109,0,0.4062,0.406,0.4059,0.3943,0.3941,0.394,0.3938,0.382,0.3818,0.3817,0,0,0,0,0,0,0,0,0,0,0,0,0,0.3978,0.3981,0.4109,0.4109,0.411,0.4062,0.406,0.4059,0.3943,0.3941,0.3939,0.3937,0.382,0.3818,0.3816,0,0,0,0,0,0,0,0,0,0,0,0,0,0.3985,0.3982,0.4109,0.4052,0.4047,0.4062,0.406,0.4058,0.3944,0.3941,0.3939,0.3936,0.3821,0.3818,0.3816,0.3851,0,0,0.3809,0.3808,0,0,0,0,0,0,0,0,0.3985,0.3989,0.4061,0.4056,0.4051,0.4013,0.3971,0.3989,0.3944,0.3974,0.3938,0.3935,0.3885,0.3877,0.3863,0.3845,0.384,0.3809,0.3807,0.3806,0.3805,0,0,0,0,0,0,0,0.3985,0.399,0.4082,0.4061,0.4055,0.3988,0.3986,0.3973,0.3936,0.3971,0.3965,0.3974,0.388,0.3865,0.3859,0.3839,0.3809,0.3806,0.3805,0.3804,0.3937,0.3942,0,0,0,0,0,0,0.4018,0.3991,0.4083,0.4081,0.4021,0.3994,0.3991,0.4021,0.3938,0.3926,0.3976,0.3969,0.3871,0.3862,0.3855,0.3959,0.3806,0.3804,0.3802,0.3932,0.3938,0.3943,0,0,0,0,0,0,0.4016,0.4028,0.4085,0.4039,0.4043,0.4,0.4033,0.4021,0.4002,0.3944,0.3928,0.3969,0.3868,0.3858,0.3873,0.3951,0.3803,0.38,0.3926,0.3934,0.3941,0.4124,0,0,0,0,0,0,0.4012,0.4027,0.4052,0.4043,0.4047,0.4123,0.4036,0.4023,0.4016,0.4005,0.3934,0.392,0.3866,0.3877,0.3871,0.3945,0.3799,0.392,0.393,0.3938,0.4112,0.4137,0.4159,0,0,0,0,0,0.4008,0.4052,0.4054,0.4064,0.4086,0.4127,0.4123,0.4075,0.4019,0.404,0.3995,0.3922,0.3932,0.3879,0.387,0.3945,0.3915,0.3927,0.3938,0.4101,0.4132,0.4158,0,0,0,0,0,0,0.4016,0.4045,0.4046,0.41,0.413,0.4111,0.4124,0.4089,0.4067,0.4053,0.3969,0.3956,0.4013,0.396,0.3903,0.4019,0.3919,0.3929,0.4047,0.4075,0.4098,0.4041,0.3797,0,0,0,0,0,0.4037,0.4066,0.4102,0.4147,0.4171,0.415,0.4154,0.4138,0.4123,0.4107,0.4072,0.4047,0.4057,0.4046,0.4054,0.4094,0.4058,0.4146,0.417,0.4189,0.4143,0.4175,0.4195,0.398,0.398,0.398,0,0,0.4053,0.4073,0.4091,0.4149,0.416,0.4197,0.4144,0.4181,0.4194,0.4103,0.412,0.4134,0.4094,0.4159,0.4179,0.4114,0.4256,0.4204,0.422,0.4161,0.4189,0.4209,0.4227,0.3988,0.3986,0.3985,0,0,0.4085,0.4131,0.4157,0.4198,0.4244,0.4245,0.4264,0.4285,0.4278,0.4322,0.4276,0.4326,0.4325,0.4323,0.4312,0.4466,0.4393,0.4494,0.4539,0.4574,0.459,0.4603,0.467,0.4687,0.4487,0.4487,0.4488,0,0.4104,0.4147,0.4176,0.4221,0.4249,0.4269,0.4309,0.4326,0.4347,0.4353,0.4355,0.4399,0.4396,0.443,0.4503,0.4514,0.4522,0.4431,0.46,0.4611,0.4621,0.4685,0.4702,0.4497,0.4496,0.4495,0.4494,0,0.4144,0.4195,0.4229,0.4281,0.4319,0.4378,0.4417,0.4459,0.447,0.4479,0.4553,0.4578,0.4581,0.4641,0.461,0.4699,0.4687,0.4641,0.4515,0.4653,0.4714,0.4728,0.4512,0.4508,0.4505,0.4503,0,0,0.4144,0.4234,0.4247,0.4271,0.436,0.4386,0.4451,0.45,0.4504,0.4593,0.4606,0.4708,0.4722,0.4712,0.4723,0.4762,0.4912,0.4736,0.4733,0.4778,0.5018,0.485,0.4848,0.4893,0.4895,0.4896,0.5061,0,0.4166,0.4244,0.4279,0.4344,0.439,0.4442,0.4479,0.4529,0.4574,0.4612,0.4673,0.4711,0.4746,0.4768,0.4828,0.4869,0.4942,0.4872,0.4893,0.4894,0.4705,0.4855,0.4635,0.4746,0.5074,0.5076,0.5078,0,0.4189,0.4227,0.4296,0.4356,0.4378,0.4406,0.4454,0.4496,0.4567,0.461,0.4676,0.4708,0.4803,0.4807,0.4949,0.4902,0.4975,0.5017,0.5023,0.478,0.4746,0.4646,0.4757,0.4617,0.5097,0.5096,0.5094,0,0.4147,0.424,0.4279,0.4313,0.4384,0.4394,0.4424,0.4488,0.4504,0.4596,0.462,0.4733,0.4773,0.4883,0.4981,0.4982,0.5111,0.5121,0.5049,0.5041,0.4803,0.4767,0.4734,0.5223,0.5222,0.5222,0.5221,0,0.4162,0.4189,0.4254,0.427,0.4278,0.4348,0.4351,0.4407,0.4464,0.448,0.4598,0.4621,0.4788,0.487,0.4986,0.504,0.5127,0.5061,0.5059,0.4872,0.4842,0.4659,0.4602,0.5228,0.5227,0.5226,0.5224,0,0.412,0.4182,0.4202,0.4251,0.4257,0.4256,0.4284,0.4288,0.4366,0.439,0.4419,0.4552,0.4671,0.4809,0.4981,0.5007,0.4944,0.5097,0.4874,0.4839,0.4601,0.4563,0.437,0.4257,0.5067,0.5064,0.5061,0,0.4113,0.4122,0.4149,0.4141,0.4153,0.4159,0.4156,0.423,0.4237,0.4333,0.4334,0.445,0.4512,0.4684,0.4771,0.4919,0.4816,0.4758,0.4698,0.4544,0.4505,0.4391,0.4304,0.4531,0.4524,0.4519,0.4514,0,0.4056,0.4059,0.4064,0.4047,0.4034,0.4018,0.4026,0.4012,0.4098,0.4119,0.417,0.4223,0.4377,0.4383,0.4508,0.4582,0.4478,0.464,0.4538,0.4105,0.3919,0.3822,0.4509,0.4463,0.4468,0.4472,0.4475,0.4477,0.3986,0.3963,0.3959,0.3931,0.3918,0.3866,0.3801,0.3824,0.3803,0.3803,0.3965,0.3978,0.4041,0.4183,0.4195,0.4047,0.4154,0.3969,0.3962,0.3883,0.3646,0.4209,0.4096,0.4099,0.4102,0.4104,0.4106,0,0.3871,0.3862,0.3842,0.3782,0.3714,0.3747,0.3695,0.3608,0.3532,0.3612,0.3646,0.3621,0.358,0.3616,0.3543,0.3412,0.3329,0.3316,0.3136,0.311,0.3668,0.351,0.3188,0.3188,0.3188,0.3188,0.3189,0.3189,0.3812,0.3747,0.3732,0.359,0.3545,0.3396,0.3334,0.3239,0.3246,0.3128,0.3082,0.3138,0.3195,0.3149,0.2975,0.29,0.2721,0.2566,0.263,0.3044,0.3106,0.3164,0.3003,0.258,0.2579,0.1952,0.1947,0.1943]},{"header":{"parameterUnit":"m.s-1","parameterCategory":2,"la1":30.2991,"la2":30.254,"lo1":-89.0895,"lo2":-89.0444,"dy":0.0017,"dx":0.0017,"nx":28,"ny":28,"refTime":"2023-08-22T21:00:00:Z","depth":"0","parameterNumber":3,"parameterNumberName":"V-component_of_CURRENTS"},"data":[0,0,0,0,0,0,0,0,0,0,0,0,0,0,0,0,0,0,0,0,0,0,0,0,0,0,0,0,0,0,0,0,0,0,0,0,0,0,0,0,0,0,0,0,0,0,0,0,0,0,0,0,0,0,0,0,0,0,0.0782,0.0782,0,0.0758,0.0758,0.0757,0.0647,0.0645,0.0642,0.064,0.0459,0.0457,0.0454,0,0,0,0,0,0,0,0,0,0,0,0,0,0.0736,0.0737,0.0782,0.0782,0.0782,0.0758,0.0758,0.0757,0.0648,0.0645,0.0642,0.0639,0.046,0.0457,0.0454,0,0,0,0,0,0,0,0,0,0,0,0,0,0.0737,0.0737,0.0782,0.0726,0.0721,0.0758,0.0758,0.0757,0.0648,0.0645,0.0641,0.0638,0.0461,0.0457,0.0454,0.0502,0,0,0.0442,0.044,0,0,0,0,0,0,0,0,0.0737,0.0738,0.0734,0.073,0.0724,0.0704,0.0675,0.0665,0.0649,0.0674,0.064,0.0636,0.053,0.0521,0.0524,0.0494,0.0486,0.0441,0.0439,0.0437,0.0436,0,0,0,0,0,0,0,0.0737,0.0739,0.0771,0.0734,0.0728,0.0703,0.0698,0.0673,0.0618,0.0671,0.0664,0.0665,0.0526,0.0528,0.0518,0.0483,0.0442,0.0438,0.0436,0.0434,0.0467,0.047,0,0,0,0,0,0,0.0748,0.0739,0.0771,0.077,0.0724,0.0707,0.0702,0.0712,0.0622,0.0606,0.0668,0.066,0.0536,0.0523,0.0511,0.0559,0.0437,0.0434,0.0432,0.0464,0.0468,0.0471,0,0,0,0,0,0,0.0747,0.0752,0.0772,0.0754,0.0755,0.0711,0.0724,0.0714,0.0708,0.0622,0.0602,0.0672,0.0533,0.0517,0.0487,0.0551,0.0432,0.0429,0.046,0.0465,0.0469,0.0657,0,0,0,0,0,0,0.0746,0.0752,0.0767,0.0756,0.0757,0.0795,0.0727,0.0716,0.0716,0.0705,0.0619,0.0598,0.0529,0.0494,0.0484,0.0543,0.0426,0.0456,0.0462,0.0468,0.0647,0.0668,0.0686,0,0,0,0,0,0.0745,0.0774,0.0768,0.0772,0.0778,0.0797,0.0796,0.075,0.072,0.073,0.067,0.0601,0.0525,0.0493,0.048,0.054,0.0453,0.046,0.0467,0.0638,0.0664,0.0685,0,0,0,0,0,0,0.076,0.0766,0.0758,0.0788,0.0795,0.0779,0.0788,0.0769,0.0738,0.072,0.0632,0.061,0.0609,0.0557,0.0524,0.057,0.0483,0.0488,0.0617,0.064,0.0659,0.0691,0.0422,0,0,0,0,0,0.0778,0.0796,0.0803,0.0826,0.0838,0.0823,0.0827,0.0804,0.0777,0.0759,0.0714,0.0666,0.0638,0.062,0.0581,0.0609,0.0568,0.0644,0.0663,0.068,0.0699,0.0682,0.0701,0.0495,0.0494,0.0494,0,0,0.0792,0.0796,0.0807,0.0831,0.0833,0.0866,0.0815,0.0831,0.0858,0.0746,0.0769,0.0725,0.0658,0.0679,0.0677,0.0638,0.0726,0.0689,0.0704,0.0714,0.0691,0.0711,0.0729,0.0499,0.0498,0.0498,0,0,0.0826,0.0838,0.0865,0.0887,0.0903,0.0901,0.0914,0.0922,0.0921,0.0946,0.0876,0.0878,0.0838,0.0819,0.0797,0.0908,0.0822,0.0898,0.1028,0.1012,0.1028,0.1042,0.1052,0.1065,0.0916,0.0916,0.0917,0,0.0847,0.0882,0.0877,0.0917,0.0946,0.0925,0.0975,0.0986,0.0985,0.1006,0.0967,0.0968,0.0913,0.0949,0.099,0.0954,0.0929,0.0942,0.1037,0.1049,0.106,0.1066,0.1078,0.0926,0.0925,0.0924,0.0923,0,0.0896,0.094,0.0965,0.1007,0.1037,0.108,0.1102,0.113,0.1136,0.115,0.1199,0.1157,0.1151,0.1158,0.1105,0.1178,0.1133,0.1056,0.0977,0.1092,0.1092,0.1101,0.0941,0.0937,0.0934,0.0932,0,0,0.0928,0.0987,0.1004,0.1043,0.1096,0.1125,0.1188,0.1246,0.1288,0.132,0.139,0.1397,0.1386,0.1364,0.1322,0.1337,0.1411,0.1249,0.1244,0.126,0.1397,0.1276,0.1273,0.1338,0.134,0.1342,0.1377,0,0.098,0.1062,0.1084,0.1179,0.1231,0.1254,0.1314,0.1361,0.1393,0.1455,0.1469,0.1501,0.1459,0.1465,0.1484,0.1423,0.1438,0.141,0.1282,0.1279,0.1156,0.128,0.1189,0.1204,0.1385,0.1387,0.1388,0,0.1039,0.1083,0.1178,0.1269,0.1296,0.1344,0.1434,0.1486,0.156,0.1589,0.1646,0.1637,0.1706,0.162,0.1626,0.1607,0.1525,0.1477,0.1474,0.1299,0.1174,0.111,0.1212,0.0991,0.14,0.1399,0.1398,0,0.1064,0.1165,0.1236,0.1273,0.1359,0.1406,0.1453,0.1529,0.1592,0.1671,0.1728,0.1778,0.1819,0.1756,0.1689,0.1649,0.1667,0.1577,0.14,0.1391,0.1257,0.1232,0.1125,0.155,0.155,0.155,0.155,0,0.1133,0.1197,0.1249,0.1294,0.1381,0.1434,0.1533,0.1581,0.1675,0.1776,0.1797,0.1893,0.185,0.1856,0.175,0.1636,0.1709,0.1458,0.1398,0.1323,0.1304,0.1053,0.0978,0.1551,0.1551,0.1551,0.1551,0,0.1173,0.1211,0.1286,0.1365,0.1396,0.1456,0.1575,0.1646,0.1727,0.1859,0.1895,0.2005,0.2023,0.1951,0.187,0.1714,0.1468,0.1511,0.1446,0.1376,0.096,0.09,0.078,0.0704,0.1332,0.133,0.1327,0,0.1202,0.124,0.1317,0.1357,0.1398,0.1487,0.1558,0.1658,0.1751,0.1939,0.2021,0.2092,0.2174,0.2039,0.1777,0.157,0.1404,0.1287,0.1173,0.0954,0.0845,0.081,0.0754,0.1099,0.1095,0.1092,0.1089,0,0.124,0.1254,0.1308,0.1379,0.1451,0.1553,0.1669,0.1752,0.1896,0.2038,0.2239,0.2322,0.2189,0.1982,0.1651,0.1464,0.1116,0.1207,0.1,0.0682,0.0623,0.0513,0.1079,0.106,0.1063,0.1065,0.1067,0.1068,0.1246,0.1279,0.1327,0.1402,0.149,0.1619,0.1716,0.1871,0.2056,0.2293,0.237,0.2514,0.2128,0.1691,0.1421,0.0783,0.0896,0.0565,0.0529,0.0528,0.0391,0.0899,0.0778,0.0779,0.078,0.0781,0.0782,0,0.1237,0.1282,0.1348,0.1445,0.1541,0.1599,0.179,0.192,0.2155,0.238,0.2564,0.2379,0.19,0.1398,0.057,0.0171,0.0078,-0.0029,-0.0095,-0.0106,0.0345,0.0262,-0.0002,-0.0002,-0.0002,-0.0001,-0.0001,-0.0001,0.1233,0.1282,0.1318,0.1457,0.1541,0.1701,0.1818,0.2048,0.2244,0.2476,0.2522,0.2538,0.2031,0.0704,-0.022,-0.0404,-0.059,-0.0654,-0.0694,-0.0424,-0.0371,-0.0321,-0.0421,-0.0824,-0.0824,-0.1151,-0.1155,-0.1158]}],[{"header":{"parameterUnit":"m.s-1","parameterCategory":2,"la1":30.2991,"la2":30.254,"lo1":-89.0895,"lo2":-89.0444,"dy":0.0017,"dx":0.0017,"nx":28,"ny":28,"refTime":"2023-08-22T21:00:00:Z","depth":"2","parameterNumber":2,"parameterNumberName":"U-component_of_CURRENTS"},"data":[0,0,0,0,0,0,0,0,0,0,0,0,0,0,0,0,0,0,0,0,0,0,0,0,0,0,0,0,0,0,0,0,0,0,0,0,0,0,0,0,0,0,0,0,0,0,0,0,0,0,0,0,0,0,0,0,0,0,0.2594,0.2593,0,0.2563,0.2563,0.2563,0.2558,0.2558,0.2557,0.2557,0.257,0.2571,0.2571,0,0,0,0,0,0,0,0,0,0,0,0,0,0.26,0.2601,0.2594,0.2593,0.2592,0.2563,0.2563,0.2563,0.2558,0.2558,0.2557,0.2557,0.257,0.2571,0.2571,0,0,0,0,0,0,0,0,0,0,0,0,0,0.2591,0.2601,0.2594,0.2582,0.2581,0.2563,0.2563,0.2563,0.2558,0.2558,0.2557,0.2557,0.257,0.257,0.2571,0.2582,0,0,0.2574,0.2574,0,0,0,0,0,0,0,0,0.2592,0.2592,0.2585,0.2583,0.2581,0.2559,0.257,0.257,0.2558,0.2572,0.2557,0.2557,0.2568,0.2568,0.257,0.2583,0.2583,0.2574,0.2574,0.2575,0.2575,0,0,0,0,0,0,0,0.2593,0.2593,0.2587,0.2584,0.2581,0.2562,0.2561,0.257,0.2576,0.2571,0.2569,0.2558,0.2567,0.2569,0.257,0.2583,0.2574,0.2574,0.2575,0.2575,0.2885,0.2892,0,0,0,0,0,0,0.2589,0.2594,0.2587,0.2585,0.258,0.2562,0.2561,0.2571,0.2575,0.2574,0.2558,0.2557,0.2568,0.2569,0.2571,0.2642,0.2575,0.2575,0.2576,0.2877,0.2886,0.2895,0,0,0,0,0,0,0.259,0.259,0.2589,0.2583,0.2581,0.2562,0.2572,0.257,0.2574,0.2564,0.2565,0.2563,0.2568,0.2569,0.263,0.264,0.2576,0.2576,0.2868,0.288,0.289,0.2748,0,0,0,0,0,0,0.2591,0.2591,0.2608,0.2584,0.2581,0.2586,0.2572,0.257,0.2565,0.2564,0.2569,0.257,0.2568,0.263,0.2631,0.264,0.2577,0.2858,0.2873,0.2887,0.2743,0.2754,0.2762,0,0,0,0,0,0.2592,0.2573,0.261,0.2609,0.2602,0.2586,0.2584,0.2571,0.2565,0.2573,0.2611,0.257,0.2726,0.2634,0.2634,0.2644,0.2851,0.2869,0.2886,0.2739,0.2751,0.2762,0,0,0,0,0,0,0.2528,0.2571,0.2609,0.2595,0.261,0.2583,0.2572,0.2575,0.2607,0.2623,0.2614,0.2619,0.2694,0.2736,0.2634,0.2812,0.2804,0.2822,0.2694,0.2705,0.2715,0.2709,0.2578,0,0,0,0,0,0.2543,0.2581,0.2596,0.259,0.2597,0.26,0.2593,0.2605,0.2618,0.2629,0.268,0.2748,0.277,0.2783,0.2856,0.2901,0.2938,0.295,0.2959,0.2965,0.2985,0.3047,0.3057,0.2952,0.2952,0.2951,0,0,0.2535,0.2543,0.2577,0.2589,0.2595,0.2609,0.2595,0.2599,0.261,0.2629,0.2712,0.2776,0.2806,0.2877,0.2917,0.2894,0.3026,0.2987,0.2988,0.3006,0.3065,0.3073,0.308,0.2964,0.2961,0.296,0,0,0.2483,0.2532,0.2545,0.257,0.2593,0.2612,0.2618,0.267,0.2686,0.278,0.2796,0.2878,0.2976,0.2978,0.2975,0.3099,0.3083,0.3161,0.3153,0.321,0.3214,0.3219,0.3262,0.3271,0.3146,0.3146,0.3146,0,0.2461,0.248,0.2538,0.2535,0.2549,0.2614,0.2617,0.264,0.273,0.2754,0.2825,0.3007,0.3015,0.3005,0.3059,0.3096,0.3141,0.3048,0.3202,0.3208,0.3214,0.3258,0.327,0.3142,0.3142,0.3143,0.3143,0,0.2428,0.2452,0.2442,0.2504,0.2532,0.2546,0.2599,0.2668,0.2752,0.2811,0.2928,0.3014,0.3104,0.3137,0.3104,0.3162,0.3182,0.3189,0.3113,0.3212,0.3258,0.3272,0.3135,0.3136,0.3138,0.3139,0,0,0.2361,0.2415,0.2423,0.2447,0.2526,0.2539,0.2573,0.2618,0.2659,0.2831,0.29,0.2976,0.3077,0.3095,0.3108,0.3166,0.3214,0.3194,0.3199,0.3135,0.3342,0.3181,0.3181,0.3224,0.3227,0.3229,0.3342,0,0.2318,0.2319,0.236,0.2393,0.2412,0.2485,0.2517,0.2587,0.27,0.2824,0.2898,0.3033,0.3026,0.3111,0.3138,0.3219,0.3254,0.3184,0.3351,0.3357,0.3113,0.3192,0.2957,0.3023,0.3356,0.3358,0.336,0,0.2268,0.2293,0.23,0.236,0.2373,0.2414,0.251,0.2552,0.2682,0.2786,0.2911,0.3032,0.3109,0.3156,0.3266,0.3222,0.3275,0.3349,0.3354,0.3264,0.3222,0.3001,0.3037,0.3384,0.3382,0.338,0.3379,0,0.2198,0.2238,0.2245,0.2272,0.236,0.2372,0.2439,0.2563,0.2627,0.2809,0.2941,0.3047,0.3179,0.3249,0.3334,0.3331,0.3488,0.3491,0.3395,0.3385,0.3252,0.3224,0.3594,0.3594,0.3594,0.3594,0.3593,0,0.211,0.2134,0.2226,0.2233,0.2287,0.2363,0.244,0.252,0.2685,0.2798,0.2933,0.3055,0.323,0.3319,0.3358,0.3384,0.3481,0.3412,0.3406,0.3203,0.317,0.3551,0.3544,0.3598,0.3597,0.3596,0.3595,0,0.2021,0.2068,0.21,0.22,0.224,0.2297,0.2449,0.2522,0.2682,0.2843,0.2925,0.3115,0.3229,0.3325,0.3484,0.3428,0.348,0.3462,0.3197,0.3155,0.3344,0.3332,0.3405,0.34,0.3396,0.3393,0.339,0,0.1973,0.1969,0.2077,0.2121,0.2168,0.2274,0.2344,0.2513,0.2594,0.2852,0.2905,0.3115,0.3183,0.3287,0.328,0.3301,0.3401,0.309,0.3031,0.334,0.3328,0.3321,0.3314,0.2823,0.2816,0.281,0.2805,0,0.1909,0.1945,0.1988,0.2063,0.214,0.2227,0.2337,0.239,0.2587,0.2707,0.2846,0.295,0.307,0.2991,0.3012,0.2979,0.3057,0.2967,0.3388,0.2874,0.2791,0.2778,0.2791,0.2753,0.2758,0.2762,0.2765,0.2767,0.1884,0.1908,0.195,0.2003,0.2099,0.2155,0.2177,0.2274,0.2366,0.2497,0.2655,0.2714,0.2792,0.2692,0.26,0.2544,0.2763,0.2674,0.2693,0.2719,0.2598,0.2508,0.2396,0.2399,0.2402,0.2404,0.2406,0,0.1838,0.1858,0.1891,0.1946,0.1987,0.2087,0.2144,0.2107,0.2125,0.2284,0.2369,0.2225,0.2192,0.2261,0.2113,0.2098,0.2089,0.2007,0.2013,0.2066,0.2114,0.1963,0.1593,0.159,0.1587,0.1585,0,0,0.1824,0.1813,0.1795,0.1807,0.187,0.1891,0.1901,0.1856,0.1883,0.1852,0.1902,0.2093,0.2206,0.1885,0.1833,0.1704,0.1862,0.1618,0.2276,0.2337,0.2381,0.2506,0.2333,0,0,0,0,0]},{"header":{"parameterUnit":"m.s-1","parameterCategory":2,"la1":30.2991,"la2":30.254,"lo1":-89.0895,"lo2":-89.0444,"dy":0.0017,"dx":0.0017,"nx":28,"ny":28,"refTime":"2023-08-22T21:00:00:Z","depth":"2","parameterNumber":3,"parameterNumberName":"V-component_of_CURRENTS"},"data":[0,0,0,0,0,0,0,0,0,0,0,0,0,0,0,0,0,0,0,0,0,0,0,0,0,0,0,0,0,0,0,0,0,0,0,0,0,0,0,0,0,0,0,0,0,0,0,0,0,0,0,0,0,0,0,0,0,0,-0.0176,-0.0176,0,-0.0196,-0.0196,-0.0196,-0.0162,-0.0161,-0.016,-0.0159,-0.0224,-0.0227,-0.0229,0,0,0,0,0,0,0,0,0,0,0,0,0,-0.0116,-0.0118,-0.0176,-0.0176,-0.0177,-0.0195,-0.0196,-0.0196,-0.0162,-0.0161,-0.016,-0.0158,-0.0223,-0.0226,-0.023,0,0,0,0,0,0,0,0,0,0,0,0,0,-0.014,-0.0118,-0.0176,-0.0162,-0.0161,-0.0195,-0.0196,-0.0196,-0.0163,-0.0161,-0.0159,-0.0158,-0.0222,-0.0226,-0.023,-0.029,0,0,-0.0243,-0.0245,0,0,0,0,0,0,0,0,-0.0138,-0.0142,-0.0164,-0.0163,-0.0162,-0.0175,-0.0199,-0.023,-0.0163,-0.0162,-0.0159,-0.0157,-0.0213,-0.0218,-0.0225,-0.0293,-0.0296,-0.0243,-0.0246,-0.0248,-0.0249,0,0,0,0,0,0,0,-0.0137,-0.0141,-0.0184,-0.0164,-0.0163,-0.0157,-0.0158,-0.0204,-0.0198,-0.0162,-0.016,-0.0162,-0.0212,-0.0221,-0.0226,-0.0297,-0.0243,-0.0247,-0.0249,-0.0251,-0.0286,-0.0285,0,0,0,0,0,0,-0.0136,-0.014,-0.0183,-0.0184,-0.0146,-0.016,-0.0161,-0.0172,-0.0196,-0.0198,-0.0164,-0.0161,-0.0214,-0.0221,-0.0228,-0.0258,-0.0248,-0.0252,-0.0254,-0.0288,-0.0286,-0.0284,0,0,0,0,0,0,-0.0135,-0.0141,-0.0182,-0.0162,-0.0166,-0.0162,-0.0175,-0.0174,-0.0178,-0.0197,-0.0199,-0.0169,-0.0213,-0.0222,-0.0229,-0.0262,-0.0253,-0.0257,-0.029,-0.0287,-0.0285,-0.0346,0,0,0,0,0,0,-0.0134,-0.014,-0.0138,-0.0162,-0.0168,-0.019,-0.0177,-0.0175,-0.0182,-0.0178,-0.0203,-0.0207,-0.0213,-0.0222,-0.0233,-0.0267,-0.0261,-0.0292,-0.0289,-0.0286,-0.0346,-0.0346,-0.0346,0,0,0,0,0,-0.0132,-0.0131,-0.0138,-0.0143,-0.0169,-0.019,-0.0192,-0.0183,-0.0184,-0.0182,-0.0177,-0.0206,-0.021,-0.0225,-0.0238,-0.0275,-0.0293,-0.0289,-0.0286,-0.0346,-0.0346,-0.0346,0,0,0,0,0,0,-0.0102,-0.0129,-0.0137,-0.0144,-0.0162,-0.0183,-0.018,-0.0191,-0.019,-0.0182,-0.0202,-0.0205,-0.0213,-0.0223,-0.0239,-0.0262,-0.0252,-0.0251,-0.0292,-0.0293,-0.0293,-0.0239,-0.0264,0,0,0,0,0,-0.0099,-0.0099,-0.0135,-0.0135,-0.0152,-0.0174,-0.018,-0.018,-0.0189,-0.0187,-0.0202,-0.0205,-0.0212,-0.0234,-0.0228,-0.0274,-0.0261,-0.0292,-0.0292,-0.0293,-0.0249,-0.0247,-0.0244,-0.0272,-0.0273,-0.0273,0,0,-0.0081,-0.0099,-0.0095,-0.0128,-0.0144,-0.0147,-0.0172,-0.0182,-0.0172,-0.0199,-0.0187,-0.0206,-0.0213,-0.0229,-0.0238,-0.025,-0.0285,-0.0288,-0.029,-0.0244,-0.0243,-0.0241,-0.0239,-0.027,-0.0271,-0.0271,0,0,-0.0049,-0.0075,-0.0068,-0.0082,-0.0108,-0.0125,-0.0133,-0.0162,-0.0162,-0.017,-0.017,-0.0188,-0.0221,-0.0224,-0.0234,-0.0231,-0.0269,-0.0253,-0.0247,-0.0248,-0.0246,-0.0244,-0.0272,-0.0272,-0.0276,-0.0277,-0.0277,0,-0.0034,-0.0025,-0.0067,-0.0067,-0.0064,-0.0116,-0.0105,-0.0122,-0.0139,-0.014,-0.0155,-0.0177,-0.0203,-0.022,-0.0215,-0.0237,-0.0249,-0.0267,-0.0252,-0.025,-0.0247,-0.0275,-0.0274,-0.0279,-0.0279,-0.0279,-0.0278,0,0.0006,0.0014,0.0013,0.0003,-0.0007,-0.0005,-0.0041,-0.0046,-0.007,-0.0091,-0.0108,-0.0144,-0.015,-0.0192,-0.0212,-0.0221,-0.0243,-0.0245,-0.0266,-0.0248,-0.0279,-0.0277,-0.0283,-0.0282,-0.0281,-0.028,0,0,0.0032,0.004,0.0044,0.0062,0.0034,0.0032,0.0037,0.0023,0.0039,-0.0018,-0.0008,-0.0063,-0.0103,-0.0109,-0.0166,-0.0194,-0.0225,-0.0223,-0.0222,-0.0273,-0.0255,-0.0284,-0.0285,-0.0248,-0.0246,-0.0245,-0.0304,0,0.0075,0.0112,0.0102,0.0146,0.0156,0.0127,0.0142,0.0124,0.0098,0.0093,0.0014,0.0004,-0.0072,-0.0094,-0.0134,-0.0176,-0.0214,-0.0209,-0.0239,-0.0239,-0.0287,-0.028,-0.025,-0.0299,-0.0302,-0.0301,-0.0301,0,0.0114,0.014,0.0187,0.0228,0.0228,0.0247,0.0268,0.0276,0.0242,0.0221,0.017,0.0111,0.0051,-0.0004,-0.0089,-0.0092,-0.0158,-0.021,-0.0214,-0.0201,-0.0262,-0.0302,-0.0296,-0.0298,-0.0298,-0.0299,-0.0299,0,0.0162,0.0201,0.0249,0.0261,0.0286,0.0312,0.0327,0.0315,0.0337,0.0301,0.0305,0.0214,0.019,0.0093,-0.0041,-0.0061,-0.0129,-0.0167,-0.026,-0.0265,-0.0214,-0.0216,-0.0199,-0.0199,-0.0199,-0.0198,-0.0198,0,0.0213,0.0254,0.028,0.0313,0.0382,0.037,0.0437,0.044,0.0447,0.0491,0.0373,0.0389,0.0221,0.0138,0.0003,-0.0125,-0.0097,-0.0234,-0.0267,-0.0239,-0.0242,-0.0202,-0.0202,-0.0201,-0.02,-0.02,-0.0199,0,0.0258,0.0272,0.0334,0.0383,0.0408,0.0454,0.0525,0.057,0.0563,0.0623,0.0614,0.0533,0.0429,0.0234,0.0089,-0.0044,-0.0179,-0.0233,-0.0209,-0.0237,-0.0332,-0.0333,-0.0332,-0.0333,-0.0334,-0.0335,-0.0336,0,0.0281,0.0317,0.0396,0.0442,0.0471,0.0542,0.06,0.0628,0.0691,0.0725,0.0769,0.0673,0.0625,0.0358,0.0107,-0.0145,-0.0177,-0.0273,-0.0289,-0.0305,-0.0338,-0.0338,-0.0338,-0.0272,-0.0272,-0.0272,-0.0272,0,0.0332,0.0356,0.0416,0.0518,0.0588,0.0681,0.0776,0.0849,0.0899,0.0944,0.1007,0.0964,0.0703,0.0463,0.0101,-0.0068,-0.0238,-0.0282,-0.028,-0.0242,-0.0252,-0.0284,-0.0285,-0.0273,-0.0273,-0.0273,-0.0273,-0.0273,0.0371,0.0422,0.0501,0.06,0.0685,0.0817,0.0917,0.1015,0.113,0.121,0.1183,0.1125,0.0832,0.0373,0.0087,-0.0225,-0.0231,-0.0333,-0.033,-0.0328,-0.031,-0.0321,-0.0353,-0.0353,-0.0354,-0.0354,-0.0354,0,0.0424,0.0491,0.0581,0.0708,0.0809,0.0849,0.1029,0.1127,0.1276,0.1319,0.1342,0.1072,0.0793,0.0458,0.0007,-0.0267,-0.0286,-0.0349,-0.0305,-0.0303,-0.0302,-0.028,-0.0317,-0.0317,-0.0317,-0.0318,0,0,0.0455,0.0556,0.0608,0.0786,0.0874,0.1036,0.1147,0.1279,0.1361,0.1399,0.1356,0.1263,0.0877,0.0568,0.0191,-0.0051,-0.0112,-0.0106,-0.0113,-0.0015,-0.0009,-0.0277,-0.024,0,0,0,0,0]}],[{"header":{"parameterUnit":"m.s-1","parameterCategory":2,"la1":30.2991,"la2":30.254,"lo1":-89.0895,"lo2":-89.0444,"dy":0.0017,"dx":0.0017,"nx":28,"ny":28,"refTime":"2023-08-22T21:00:00:Z","depth":"4","parameterNumber":2,"parameterNumberName":"U-component_of_CURRENTS"},"data":[0,0,0,0,0,0,0,0,0,0,0,0,0,0,0,0,0,0,0,0,0,0,0,0,0,0,0,0,0,0,0,0,0,0,0,0,0,0,0,0,0,0,0,0,0,0,0,0,0,0,0,0,0,0,0,0,0,0,0.1124,0.1124,0,0.118,0.118,0.1181,0.1253,0.1254,0.1256,0.1257,0.13,0.13,0.13,0,0,0,0,0,0,0,0,0,0,0,0,0,0.1113,0.1112,0.1124,0.1124,0.1125,0.118,0.118,0.1181,0.1253,0.1254,0.1256,0.1257,0.13,0.13,0.13,0,0,0,0,0,0,0,0,0,0,0,0,0,0.1137,0.1112,0.1123,0.1168,0.1173,0.118,0.118,0.1181,0.1252,0.1254,0.1256,0.1258,0.13,0.13,0.13,0.1262,0,0,0.13,0.13,0,0,0,0,0,0,0,0,0.1135,0.1137,0.1161,0.1165,0.1171,0.1212,0.1193,0.1208,0.1252,0.1221,0.1257,0.1259,0.1269,0.1272,0.1277,0.1264,0.1266,0.13,0.13,0.13,0.13,0,0,0,0,0,0,0,0.1134,0.1135,0.1145,0.1162,0.1168,0.1198,0.1203,0.1196,0.1232,0.1224,0.123,0.1237,0.1272,0.1276,0.1278,0.1266,0.13,0.13,0.13,0.13,0.1382,0.1384,0,0,0,0,0,0,0.1125,0.1133,0.1143,0.1146,0.1159,0.1196,0.1202,0.1196,0.1233,0.1241,0.1235,0.124,0.1276,0.1278,0.128,0.1328,0.13,0.13,0.13,0.138,0.1383,0.1385,0,0,0,0,0,0,0.1124,0.1124,0.1141,0.1143,0.1148,0.1194,0.1187,0.1196,0.1234,0.1242,0.125,0.1268,0.1277,0.128,0.1326,0.1326,0.13,0.13,0.1377,0.1381,0.1384,0.1364,0,0,0,0,0,0,0.1123,0.1123,0.1136,0.1142,0.1147,0.1159,0.1186,0.1196,0.1234,0.1242,0.1271,0.1276,0.1279,0.1326,0.1326,0.1326,0.13,0.1375,0.1379,0.1383,0.1362,0.1366,0.137,0,0,0,0,0,0.1122,0.1123,0.1136,0.1139,0.1155,0.1159,0.1165,0.1204,0.1234,0.1246,0.1292,0.1277,0.1353,0.1328,0.1327,0.1327,0.1373,0.1378,0.1382,0.136,0.1365,0.137,0,0,0,0,0,0,0.1127,0.113,0.1145,0.1148,0.1162,0.1172,0.1194,0.1216,0.1259,0.1283,0.1296,0.1303,0.1342,0.1351,0.1323,0.1372,0.1362,0.1367,0.1346,0.1351,0.1355,0.1397,0.13,0,0,0,0,0,0.113,0.1134,0.114,0.1147,0.1154,0.1178,0.1194,0.1218,0.1247,0.127,0.1295,0.1332,0.1354,0.1369,0.1389,0.1405,0.1424,0.1414,0.1417,0.142,0.1461,0.1493,0.1502,0.1401,0.1401,0.1401,0,0,0.1134,0.1139,0.1142,0.115,0.1165,0.1177,0.1193,0.1219,0.1248,0.1264,0.1323,0.1341,0.1366,0.1395,0.1412,0.1404,0.1455,0.1427,0.1428,0.1468,0.1499,0.1508,0.1516,0.1405,0.1404,0.1404,0,0,0.1132,0.1146,0.1148,0.116,0.1186,0.1197,0.1209,0.1235,0.1271,0.1314,0.1342,0.1385,0.1408,0.1435,0.1447,0.1492,0.1475,0.1486,0.1531,0.156,0.1568,0.1575,0.1579,0.1587,0.1486,0.1486,0.1486,0,0.1141,0.1142,0.1151,0.1161,0.118,0.1207,0.1222,0.1251,0.1298,0.1331,0.1341,0.1421,0.1433,0.1479,0.1507,0.1497,0.1507,0.1495,0.1562,0.157,0.1578,0.158,0.1589,0.1486,0.1486,0.1486,0.1486,0,0.1133,0.1153,0.1156,0.1177,0.1197,0.1213,0.1247,0.1288,0.133,0.136,0.1428,0.146,0.1511,0.151,0.1524,0.1584,0.1568,0.1554,0.1537,0.1586,0.1586,0.1595,0.1485,0.1485,0.1485,0.1485,0,0,0.1099,0.1141,0.1147,0.117,0.1211,0.1221,0.1277,0.1323,0.1375,0.1422,0.1485,0.1537,0.1563,0.1586,0.1595,0.1637,0.1682,0.163,0.1632,0.1614,0.1732,0.164,0.1641,0.1669,0.1672,0.1674,0.1695,0,0.1093,0.1113,0.1142,0.118,0.1194,0.1248,0.1296,0.1353,0.1406,0.1473,0.1523,0.1587,0.1583,0.1619,0.1652,0.1692,0.1714,0.1678,0.1709,0.171,0.1605,0.1652,0.1682,0.1703,0.1705,0.1706,0.1708,0,0.1072,0.1093,0.1122,0.1192,0.1205,0.1239,0.1327,0.1381,0.1475,0.1523,0.1589,0.1632,0.1716,0.1702,0.1779,0.1754,0.1756,0.1774,0.1774,0.1715,0.1638,0.1658,0.1725,0.1724,0.1722,0.1721,0.172,0,0.1027,0.1081,0.1107,0.1127,0.1204,0.1247,0.1302,0.1397,0.1461,0.1572,0.1628,0.1704,0.177,0.1798,0.1845,0.1817,0.1921,0.1867,0.1778,0.177,0.185,0.1843,0.1918,0.1918,0.1918,0.1918,0.1918,0,0.0992,0.102,0.1093,0.1106,0.1163,0.1233,0.1317,0.1384,0.1496,0.1569,0.1655,0.1722,0.1808,0.187,0.1872,0.1865,0.193,0.1814,0.1784,0.1837,0.1829,0.1854,0.1846,0.1919,0.1919,0.1919,0.1919,0,0.0933,0.098,0.1018,0.1103,0.1141,0.1184,0.132,0.1373,0.1495,0.1595,0.1642,0.1769,0.185,0.1906,0.1973,0.1901,0.1907,0.1881,0.1948,0.1917,0.1718,0.171,0.1764,0.1762,0.1759,0.1757,0.1756,0,0.0899,0.0911,0.1003,0.1029,0.1072,0.116,0.1217,0.1354,0.1419,0.1606,0.1638,0.178,0.1844,0.1856,0.1919,0.191,0.1885,0.1854,0.1784,0.1745,0.171,0.1705,0.17,0.1752,0.1752,0.1751,0.175,0,0.0835,0.0877,0.0911,0.0966,0.1021,0.1087,0.1185,0.1226,0.1389,0.1516,0.1609,0.1665,0.1753,0.1799,0.1826,0.1809,0.1859,0.1829,0.1832,0.1765,0.173,0.1697,0.1695,0.1742,0.1743,0.1744,0.1745,0,0.0793,0.0802,0.0851,0.0895,0.0955,0.0986,0.1055,0.1143,0.1235,0.1443,0.1475,0.1614,0.1746,0.1748,0.1767,0.1761,0.1711,0.1625,0.1637,0.1647,0.16,0.1538,0.1487,0,0,0,0,0,0.0746,0.0751,0.0777,0.0815,0.0865,0.0906,0.1019,0.1095,0.126,0.1287,0.1383,0.1461,0.1523,0.1598,0.1563,0.1686,0.1698,0.1635,0.1599,0.1698,0.1707,0.1664,0,0,0,0,0,0,0.0712,0.0736,0.0749,0.0737,0.0748,0.08,0.0862,0.0969,0.1009,0.1182,0.1231,0.1361,0.1447,0.153,0.1533,0.1551,0.1494,0.1727,0.1723,0.1692,0.1701,0.1708,0.1668,0,0,0,0,0]},{"header":{"parameterUnit":"m.s-1","parameterCategory":2,"la1":30.2991,"la2":30.254,"lo1":-89.0895,"lo2":-89.0444,"dy":0.0017,"dx":0.0017,"nx":28,"ny":28,"refTime":"2023-08-22T21:00:00:Z","depth":"4","parameterNumber":3,"parameterNumberName":"V-component_of_CURRENTS"},"data":[0,0,0,0,0,0,0,0,0,0,0,0,0,0,0,0,0,0,0,0,0,0,0,0,0,0,0,0,0,0,0,0,0,0,0,0,0,0,0,0,0,0,0,0,0,0,0,0,0,0,0,0,0,0,0,0,0,0,-0.0073,-0.0074,0,-0.012,-0.012,-0.0121,-0.0147,-0.0147,-0.0147,-0.0147,-0.0183,-0.0185,-0.0186,0,0,0,0,0,0,0,0,0,0,0,0,0,-0.0049,-0.0049,-0.0073,-0.0074,-0.0074,-0.0119,-0.012,-0.0121,-0.0147,-0.0147,-0.0147,-0.0147,-0.0183,-0.0184,-0.0186,0,0,0,0,0,0,0,0,0,0,0,0,0,-0.0076,-0.0049,-0.0073,-0.0091,-0.0093,-0.0119,-0.012,-0.0121,-0.0147,-0.0147,-0.0147,-0.0147,-0.0183,-0.0184,-0.0186,-0.02,0,0,-0.0191,-0.0192,0,0,0,0,0,0,0,0,-0.0074,-0.0077,-0.0088,-0.009,-0.0092,-0.0125,-0.0125,-0.0146,-0.0147,-0.0129,-0.0147,-0.0147,-0.0162,-0.0165,-0.0178,-0.0202,-0.0203,-0.0191,-0.0192,-0.0193,-0.0193,0,0,0,0,0,0,0,-0.0072,-0.0075,-0.0094,-0.0088,-0.0091,-0.011,-0.0114,-0.013,-0.0148,-0.0131,-0.0132,-0.0134,-0.0163,-0.0176,-0.0179,-0.0204,-0.0191,-0.0192,-0.0193,-0.0194,-0.0279,-0.028,0,0,0,0,0,0,-0.006,-0.0073,-0.0093,-0.0095,-0.008,-0.0111,-0.0115,-0.0117,-0.0148,-0.0152,-0.0134,-0.0135,-0.0173,-0.0177,-0.018,-0.0194,-0.0193,-0.0194,-0.0195,-0.0277,-0.0279,-0.028,0,0,0,0,0,0,-0.0059,-0.0061,-0.0091,-0.0084,-0.0088,-0.0111,-0.0113,-0.0118,-0.013,-0.015,-0.0154,-0.014,-0.0173,-0.0178,-0.0208,-0.0195,-0.0195,-0.0197,-0.0276,-0.0278,-0.028,-0.0224,0,0,0,0,0,0,-0.0058,-0.0061,-0.0054,-0.0083,-0.0088,-0.0097,-0.0113,-0.0119,-0.013,-0.0132,-0.0157,-0.016,-0.0174,-0.0206,-0.021,-0.0198,-0.0198,-0.0274,-0.0277,-0.0279,-0.0224,-0.0223,-0.0223,0,0,0,0,0,-0.0057,-0.0049,-0.0054,-0.0056,-0.008,-0.0097,-0.0101,-0.0119,-0.013,-0.0131,-0.0164,-0.0159,-0.0224,-0.0208,-0.0213,-0.02,-0.0273,-0.0276,-0.0279,-0.0224,-0.0223,-0.0223,0,0,0,0,0,0,-0.0037,-0.0051,-0.0057,-0.0054,-0.0069,-0.01,-0.01,-0.0118,-0.0145,-0.0149,-0.0175,-0.0181,-0.0206,-0.0222,-0.0204,-0.0238,-0.0248,-0.0252,-0.0205,-0.0205,-0.0204,-0.018,-0.0199,0,0,0,0,0,-0.0028,-0.0022,-0.0045,-0.004,-0.0047,-0.0075,-0.0084,-0.0097,-0.0126,-0.0137,-0.0158,-0.019,-0.0222,-0.0227,-0.0259,-0.0269,-0.0295,-0.0269,-0.0269,-0.0268,-0.0256,-0.031,-0.0313,-0.029,-0.029,-0.029,0,0,-0.0018,-0.0023,-0.0021,-0.0034,-0.0049,-0.0048,-0.008,-0.009,-0.0087,-0.0137,-0.0144,-0.019,-0.0231,-0.0251,-0.0262,-0.0257,-0.0289,-0.0271,-0.027,-0.0258,-0.0313,-0.0315,-0.0317,-0.0292,-0.0291,-0.0291,0,0,0.0006,-0.0002,0.001,0.0002,-0.0012,-0.0028,-0.0029,-0.006,-0.0071,-0.009,-0.0135,-0.018,-0.0208,-0.0243,-0.0262,-0.0281,-0.0294,-0.0289,-0.0248,-0.0301,-0.0303,-0.0304,-0.0333,-0.0337,-0.0276,-0.0276,-0.0276,0,0.0021,0.0033,0.001,0.0021,0.0023,-0.0014,-0.0003,-0.0019,-0.0055,-0.0069,-0.0082,-0.0168,-0.0203,-0.024,-0.0249,-0.0274,-0.0301,-0.0238,-0.0297,-0.0299,-0.0302,-0.0331,-0.0337,-0.0273,-0.0274,-0.0274,-0.0274,0,0.005,0.0064,0.007,0.0076,0.0072,0.0076,0.0053,0.0042,0.0021,-0.0004,-0.005,-0.0116,-0.0163,-0.0187,-0.0218,-0.0256,-0.0268,-0.0296,-0.0287,-0.03,-0.0331,-0.0338,-0.027,-0.0271,-0.0272,-0.0272,0,0,0.0074,0.0089,0.0094,0.0111,0.0103,0.0103,0.0106,0.0091,0.0089,0.0044,0.003,-0.0046,-0.0091,-0.012,-0.0175,-0.0218,-0.0263,-0.0253,-0.0257,-0.026,-0.0362,-0.0324,-0.0328,-0.0299,-0.03,-0.0301,-0.0372,0,0.0106,0.0144,0.014,0.0178,0.0194,0.017,0.018,0.016,0.0132,0.0108,0.0031,-0.0006,-0.006,-0.0087,-0.0141,-0.0243,-0.028,-0.024,-0.0367,-0.037,-0.0318,-0.0335,-0.0305,-0.0377,-0.0379,-0.038,-0.0381,0,0.0137,0.0162,0.0205,0.0235,0.0238,0.0258,0.0258,0.0261,0.0215,0.0189,0.0132,0.0069,-0.0008,-0.0052,-0.02,-0.0171,-0.0254,-0.0327,-0.0332,-0.0318,-0.0346,-0.0368,-0.0394,-0.0393,-0.0392,-0.0391,-0.039,0,0.0168,0.0208,0.0248,0.0259,0.0282,0.0299,0.031,0.0285,0.0292,0.0239,0.0227,0.0122,0.0072,-0.0051,-0.0194,-0.0201,-0.0353,-0.0386,-0.0426,-0.0424,-0.0459,-0.0457,-0.0481,-0.0481,-0.0481,-0.0481,-0.0481,0,0.0204,0.0238,0.0272,0.0296,0.035,0.0346,0.0387,0.0375,0.036,0.0368,0.0275,0.0249,0.0069,-0.0039,-0.0173,-0.031,-0.0337,-0.0414,-0.0442,-0.0435,-0.0429,-0.0463,-0.046,-0.0484,-0.0483,-0.0483,-0.0482,0,0.0231,0.0252,0.0304,0.0346,0.037,0.0407,0.0459,0.0478,0.0457,0.0462,0.0451,0.0338,0.0195,0.0024,-0.0181,-0.0268,-0.0414,-0.0455,-0.0412,-0.0437,-0.0454,-0.0448,-0.0506,-0.0505,-0.0505,-0.0504,-0.0504,0,0.0245,0.0277,0.0348,0.0386,0.0413,0.0473,0.0516,0.0529,0.0549,0.0517,0.0518,0.0395,0.0301,0.0052,-0.0137,-0.037,-0.0406,-0.0462,-0.0478,-0.0436,-0.0458,-0.0453,-0.0447,-0.0503,-0.0503,-0.0503,-0.0502,0,0.0274,0.0303,0.0347,0.0429,0.0491,0.0558,0.0618,0.0644,0.0651,0.0634,0.0576,0.0444,0.0288,0.0072,-0.0102,-0.0275,-0.0418,-0.0457,-0.046,-0.0476,-0.0433,-0.0454,-0.045,-0.05,-0.0501,-0.0501,-0.0501,0,0.0297,0.0332,0.0395,0.0468,0.0546,0.0617,0.0649,0.0677,0.0701,0.0663,0.0644,0.0467,0.036,0.0123,-0.0043,-0.0202,-0.0251,-0.0293,-0.0306,-0.031,-0.0235,-0.0152,-0.0149,0,0,0,0,0,0.0317,0.0361,0.0427,0.0509,0.0585,0.0635,0.0704,0.0723,0.0738,0.071,0.068,0.0535,0.0292,0.0177,0.0023,-0.0046,-0.0284,-0.0229,-0.034,-0.0489,-0.0491,-0.0434,0,0,0,0,0,0,0.0329,0.0394,0.0429,0.0533,0.059,0.0682,0.0729,0.0739,0.0722,0.0703,0.0568,0.0511,0.0261,0.0372,0.002,-0.0028,-0.0113,-0.0348,-0.0351,-0.0488,-0.049,-0.0492,-0.0433,0,0,0,0,0]}]]